Regional Weather Roundup
Issued by NWS Sioux Falls, SD

Home | Current Version | Previous Version | Text Only | Print | Product List | Glossary Off
Versions: 1 2 3 4 5 6 7 8 9 10 11 12 13 14 15 16 17 18 19 20 21 22 23 24 25 26 27 28 29 30 31 32 33 34 35 36 37 38 39 40 41 42 43 44 45 46 47 48 49 50

000
ASUS43 KFSD 030002
RWRFSD

WEATHER ROUNDUP FOR SE SOUTH DAKOTA/SW MINNESOTA/NW IOWA
NATIONAL WEATHER SERVICE SIOUX FALLS SD
700 PM CDT WED SEP 02 2015

NOTE: "FAIR" INDICATES FEW OR NO CLOUDS BELOW 12,000 FEET WITH NO
SIGNIFICANT WEATHER AND OR OBSTRUCTIONS TO VISIBILITY.


SDZ038>040-050-052>070-030100-
SOUTHEAST SOUTH DAKOTA

CITY           SKY/WX    TMP DP  RH WIND       PRES   REMARKS
BROOKINGS      PTSUNNY   82  72  69 SE10      29.83S
CHAMBERLAIN    NOT AVBL
HURON          SUNNY     87  75  67 SE6       29.73S HX  96
6HR MIN TEMP:  84; 6HR MAX TEMP:  91;

MADISON        FAIR      82  75  78 S12G17    29.81S
MITCHELL       SUNNY     88  76  67 SE10      29.74S HX  99
6HR MIN TEMP:  84; 6HR MAX TEMP:  92;

SIOUX FALLS    MOSUNNY   83  73  72 S15       29.80F
6HR MIN TEMP:  83; 6HR MAX TEMP:  86;

WINNER         FAIR      94  57  28 SE9       29.73F
YANKTON        SUNNY     86  72  62 SE9       29.77S
$$

MNZ071-072-080-081-089-090-097-098-030100-
SOUTHWEST MINNESOTA

CITY           SKY/WX    TMP DP  RH WIND       PRES   REMARKS
FAIRMONT       PTCLDY    82  70  65 S7        29.86S
JACKSON        PTCLDY    81  73  78 SE5       29.87R
LUVERNE        MOCLDY    82  72  69 S6        29.84S
MARSHALL       PTCLDY    82  72  69 SE8       29.84R
6HR MIN TEMP:  82; 6HR MAX TEMP:  88;

MONTEVIDEO     MOCLDY    81  73  78 SE9       29.84R
PIPESTONE      MOCLDY    82  73  74 SE6       29.84S
REDWOOD FALLS  MOCLDY    83  74  74 E6        29.82S
TRACY          MOCLDY    83  76  81 SE5       29.84S
WINDOM         PTCLDY    82  72  69 CALM      29.85F
WORTHINGTON    PTCLDY    81  72  74 S7        29.85S
$$

IAZ001>003-012>014-020>022-031-032-NEZ013-014-SDZ071-030100-
NORTHWEST IOWA

CITY           SKY/WX    TMP DP  RH WIND       PRES   REMARKS
ESTHERVILLE    CLEAR     81  72  74 S5        29.86R
SIOUX CITY     CLEAR     84  67  56 S7        29.81S
6HR MIN TEMP:  84; 6HR MAX TEMP:  87;

SPENCER        CLEAR     82  71  69 S8        29.85R HAZE
6HR MIN TEMP:  82; 6HR MAX TEMP:  86;

$$

ABBREVIATIONS USED IN REMARKS
   TC - TEMPERATURE IN CELSIUS
  WCI - WIND CHILL INDEX
   HX - HEAT INDEX
  VSB - VISIBILITY



USA.gov is the U.S. government's official web portal to all federal, state and local government web resources and services.